Weather History for Anchorage, AK

Change the Weather History Date:

Wednesday, February 26, 2014

  Actual Average Record
Temperature  
Mean Temperature 28 °F 22 °F  
Max Temperature 33 °F 29 °F 50 °F (1943)
Min Temperature 23 °F 16 °F -22 °F (1954)
Degree Days  
Heating Degree Days 37    
Month to date heating degree days 1238  
Since 1 July heating degree days 6693  
Cooling Degree Days 0    
Month to date cooling degree days 0  
Year to date cooling degree days 0  
Moisture  
Dew Point 13 °F    
Average Humidity 50    
Maximum Humidity 60    
Minimum Humidity 39    
Precipitation  
Precipitation 0.00 in 0.02 in 0.57 in (1916)
Month to date precipitation 0.65 0.68  
Year to date precipitation 2.02 1.41  
Snow  
Snow 0.00 in 0.30 in 6.20 in (1993)
Month to date snowfall 9.9 10.3  
Since 1 July snowfall 53.4 59.7  
Snow Depth 11.00 in    
Sea Level Pressure  
Sea Level Pressure 29.83 in    
Wind  
Wind Speed 6 mph (NE)    
Max Wind Speed 12 mph    
Max Gust Speed -    
Visibility 10 miles    
Events      
T = Trace of Precipitation, MM = Missing Value Source: NWS Daily Summary

Daily Weather History Graph

Daily Weather History Graph

Search for Another Location

Airport:

Trip Planner

Search our weather history database for the weather conditions in past years. The results will help you decide how hot, cold, wet, or windy it might be!

Date:

Astronomy

Feb. 26, 2014 Rise Set
Actual Time 8:09 AM AKST 6:17 PM AKST
Civil Twilight 7:25 AM AKST 7:01 PM AKST
Nautical Twilight 6:35 AM AKST 7:51 PM AKST
Astronomical Twilight 5:45 AM AKST 8:42 PM AKST
Moon 6:39 AM AKST (2/26) 3:13 PM AKST (2/26)
Length of Visible Light 11h 36m
Length of Day
10h 08m
Waning Crescent, 9% of the Moon is Illuminated
Feb 26
Waning Crescent
Feb 28
New
Mar 8
First Quarter
Mar 16
Full
Mar 23
Last Quarter

Hourly Weather History & Observations

Time (AKST) Temp. Windchill Dew Point Humidity Pressure Visibility Wind Dir Wind Speed Gust Speed Precip Events Conditions
12:53 AM 26.1 °F 18.4 °F 9.0 °F 49% 29.96 in 10.0 mi NNW 6.9 mph - N/A   Mostly Cloudy
1:53 AM 28.0 °F 21.7 °F 6.1 °F 39% 29.94 in 10.0 mi NNW 5.8 mph - N/A   Mostly Cloudy
3:53 AM 26.1 °F 16.2 °F 7.0 °F 44% 29.92 in 10.0 mi North 10.4 mph - N/A   Mostly Cloudy
4:53 AM 25.0 °F 14.8 °F 8.1 °F 49% 29.91 in 10.0 mi North 10.4 mph - N/A   Mostly Cloudy
5:53 AM 26.1 °F 18.4 °F 7.0 °F 44% 29.89 in 10.0 mi North 6.9 mph - N/A   Mostly Cloudy
6:53 AM 27.0 °F 20.5 °F 8.1 °F 45% 29.88 in 10.0 mi NNE 5.8 mph - N/A   Mostly Cloudy
7:53 AM 27.0 °F 21.6 °F 10.9 °F 51% 29.87 in 10.0 mi NE 4.6 mph - N/A   Mostly Cloudy
8:53 AM 28.0 °F 21.7 °F 8.1 °F 43% 29.87 in 10.0 mi North 5.8 mph - N/A   Mostly Cloudy
9:53 AM 28.9 °F 23.9 °F 10.9 °F 47% 29.86 in 10.0 mi NNE 4.6 mph - N/A   Mostly Cloudy
10:53 AM 28.9 °F 23.9 °F 15.1 °F 56% 29.86 in 10.0 mi NNE 4.6 mph - N/A   Mostly Cloudy
11:53 AM 30.0 °F 23.2 °F 15.1 °F 54% 29.84 in 10.0 mi NNE 6.9 mph - N/A   Mostly Cloudy
12:53 PM 30.9 °F 26.2 °F 16.0 °F 54% 29.82 in 10.0 mi NE 4.6 mph - N/A   Mostly Cloudy
1:53 PM 30.0 °F 20.5 °F 15.1 °F 54% 29.82 in 10.0 mi NE 11.5 mph - N/A   Mostly Cloudy
2:53 PM 30.0 °F 24.1 °F 18.0 °F 61% 29.79 in 10.0 mi NE 5.8 mph - N/A   Mostly Cloudy
3:53 PM 30.9 °F 26.2 °F 14.0 °F 50% 29.79 in 10.0 mi NNE 4.6 mph - N/A   Overcast
4:53 PM 30.9 °F 24.3 °F 16.0 °F 54% 29.77 in 10.0 mi ENE 6.9 mph - N/A   Mostly Cloudy
5:53 PM 30.9 °F 27.5 °F 17.1 °F 57% 29.76 in 10.0 mi ENE 3.5 mph - N/A   Overcast
6:53 PM 32.0 °F 27.5 °F 15.1 °F 50% 29.76 in 10.0 mi East 4.6 mph - N/A   Overcast
7:53 PM 32.0 °F 24.2 °F 16.0 °F 52% 29.75 in 10.0 mi East 9.2 mph - N/A   Overcast
8:53 PM 32.0 °F 26.4 °F 16.0 °F 52% 29.75 in 10.0 mi East 5.8 mph - N/A   Overcast
9:53 PM 33.1 °F 27.7 °F 17.1 °F 52% 29.74 in 10.0 mi East 5.8 mph - N/A   Overcast
10:53 PM 33.1 °F 27.7 °F 17.1 °F 52% 29.75 in 10.0 mi East 5.8 mph - N/A   Overcast
11:53 PM 35.1 °F 30.1 °F 17.1 °F 48% 29.75 in 10.0 mi ENE 5.8 mph - N/A   Overcast